KL1SF-7 Weather Reports


Display with metric or nautical units.
time (UTC)temp
F
wind
direction
speed
MPH
gust
MPH
rain 1hr
in
rain 24hr
in
rain mn
in
humidity
%
barometer
mb
20180716144346 67 234 0.0 1.0 0.00 0.00 0.00 64 1027.5
20180716143331 67 234 0.0 1.0 0.00 0.00 0.00 63 1027.5
20180716142338 65 234 0.0 1.0 0.00 0.00 0.00 65 1026.9
20180716141349 64 234 0.0 3.0 0.00 0.00 0.00 68 1027.2
20180716140334 63 237 0.0 1.0 0.00 0.00 0.00 70 1027.2
20180716135342 62 237 0.0 1.0 0.00 0.00 0.00 74 1026.9
20180716134344 60 237 0.0 1.0 0.00 0.00 0.00 78 1027.3
20180716133351 59 236 0.0 0.0 0.00 0.00 0.00 85 1027.3
20180716132337 57 236 0.0 0.0 0.00 0.00 0.00 90 1026.5
20180716131346 56 236 0.0 0.0 0.00 0.00 0.00 90 1026.2
20180716130351 56 236 0.0 0.0 0.00 0.00 0.00 90 1026.2
20180716125339 56 236 0.0 0.0 0.00 0.00 0.00 90 1026.1
20180716124345 56 237 0.0 0.0 0.00 0.00 0.00 89 1025.8
20180716123332 56 237 0.0 0.0 0.00 0.00 0.00 89 1025.8
20180716122335 56 236 0.0 0.0 0.00 0.00 0.00 89 1026.1
20180716121342 57 237 0.0 0.0 0.00 0.00 0.00 88 1025.6
20180716120349 57 237 0.0 0.0 0.00 0.00 0.00 88 1025.6
20180716115337 57 237 0.0 0.0 0.00 0.00 0.00 88 1025.6
20180716114342 57 237 0.0 0.0 0.00 0.00 0.00 87 1025.6
20180716113412 57 237 0.0 0.0 0.00 0.00 0.00 87 1025.6
20180716112355 58 237 0.0 0.0 0.00 0.00 0.00 86 1025.6
20180716111341 58 237 0.0 0.0 0.00 0.00 0.00 86 1025.9
20180716110346 58 237 0.0 0.0 0.00 0.00 0.00 86 1025.9
20180716105333 58 237 0.0 0.0 0.00 0.00 0.00 85 1026.0
20180716104343 59 237 0.0 0.0 0.00 0.00 0.00 85 1026.1
20180716103331 59 237 0.0 0.0 0.00 0.00 0.00 84 1026.1
20180716102400 59 237 0.0 0.0 0.00 0.00 0.00 84 1025.6
20180716101400 60 237 0.0 0.0 0.00 0.00 0.00 83 1025.6
20180716100345 60 237 0.0 0.0 0.00 0.00 0.00 83 1025.6
20180716095351 60 237 0.0 0.0 0.00 0.00 0.00 83 1025.5
20180716094338 60 237 0.0 0.0 0.00 0.00 0.00 84 1025.5
20180716093345 60 237 0.0 0.0 0.00 0.00 0.00 84 1025.5
20180716092348 60 237 0.0 0.0 0.00 0.00 0.00 84 1025.5
20180716091332 60 237 0.0 0.0 0.00 0.00 0.00 84 1025.6
20180716090358 59 237 0.0 0.0 0.00 0.00 0.00 84 1025.6
20180716085341 59 237 0.0 0.0 0.00 0.00 0.00 83 1025.8
20180716084351 59 237 0.0 0.0 0.00 0.00 0.00 83 1026.1
20180716083338 59 237 0.0 0.0 0.00 0.00 0.00 82 1026.1
20180716082403 60 237 0.0 0.0 0.00 0.00 0.00 82 1026.1
20180716081351 60 237 0.0 0.0 0.00 0.00 0.00 82 1026.5
20180716080356 60 237 0.0 0.0 0.00 0.00 0.00 82 1026.5
20180716075338 60 237 0.0 0.0 0.00 0.00 0.00 82 1026.1
20180716074342 59 237 0.0 0.0 0.00 0.00 0.00 83 1026.1
20180716073350 59 237 0.0 0.0 0.00 0.00 0.00 83 1026.1
20180716072358 59 237 0.0 0.0 0.00 0.00 0.00 83 1026.1
20180716071343 59 237 0.0 0.0 0.00 0.00 0.00 83 1026.9
20180716070330 59 237 0.0 0.0 0.00 0.00 0.00 82 1026.9
20180716065334 59 237 0.0 0.0 0.00 0.00 0.00 82 1026.8
20180716064357 60 237 0.0 0.0 0.00 0.00 0.00 81 1026.8
20180716063345 60 237 0.0 0.0 0.00 0.00 0.00 81 1026.8
20180716062351 60 237 0.0 0.0 0.00 0.00 0.00 80 1026.7
20180716061336 60 237 0.0 0.0 0.00 0.00 0.00 80 1026.1
20180716060344 61 237 0.0 0.0 0.00 0.00 0.00 79 1026.1
20180716055351 61 237 0.0 0.0 0.00 0.00 0.00 78 1025.9
20180716054334 62 237 0.0 0.0 0.00 0.00 0.00 77 1026.1
20180716053340 62 237 0.0 0.0 0.00 0.00 0.00 76 1026.1
20180716052346 62 237 0.0 0.0 0.00 0.00 0.00 75 1026.2
20180716051333 62 237 0.0 0.0 0.00 0.00 0.00 76 1026.3
20180716050358 62 237 0.0 0.0 0.00 0.00 0.00 76 1026.3
20180716045356 62 237 0.0 0.0 0.00 0.00 0.00 76 1026.9
20180716044333 63 237 0.0 0.0 0.00 0.00 0.00 76 1026.5
20180716043349 62 237 0.0 0.0 0.00 0.00 0.00 75 1026.5
20180716042347 62 237 0.0 0.0 0.00 0.00 0.00 76 1026.4
20180716041333 62 237 0.0 0.0 0.00 0.00 0.00 76 1025.7
20180716040339 63 237 0.0 0.0 0.00 0.01 0.00 77 1025.7
20180716035345 63 237 0.0 0.0 0.00 0.01 0.00 77 1025.6
20180716034340 63 237 0.0 0.0 0.00 0.01 0.00 77 1025.6
20180716033345 63 237 0.0 0.0 0.00 0.01 0.00 76 1025.6
20180716032331 63 237 0.0 0.0 0.00 0.01 0.00 76 1025.5
20180716031335 63 237 0.0 0.0 0.00 0.01 0.00 76 1026.2
20180716030401 63 237 0.0 0.0 0.00 0.01 0.00 76 1026.2
20180716025345 64 237 0.0 0.0 0.00 0.01 0.00 76 1026.2
20180716024404 64 237 0.0 0.0 0.00 0.01 0.00 75 1026.2
20180716023348 64 237 0.0 0.0 0.00 0.01 0.00 74 1026.2
20180716022334 64 237 0.0 0.0 0.00 0.01 0.00 74 1025.9
20180716021337 64 237 0.0 0.0 0.00 0.01 0.00 75 1025.5
20180716020342 64 237 0.0 0.0 0.00 0.01 0.00 74 1025.5
20180716015349 64 237 0.0 0.0 0.00 0.01 0.00 74 1025.4
20180716014334 64 237 0.0 0.0 0.00 0.01 0.00 74 1025.5
20180716013337 64 237 0.0 1.0 0.00 0.01 0.00 73 1025.5
20180716012344 65 237 0.0 0.0 0.00 0.01 0.00 73 1025.2
20180716011350 65 237 0.0 4.0 0.00 0.01 0.00 71 1025.3
20180716010354 65 237 0.0 7.0 0.00 0.01 0.00 70 1025.3
20180716005339 65 222 0.0 3.0 0.00 0.01 0.00 70 1025.3
20180716004342 65 222 0.0 4.0 0.00 0.01 0.00 70 1025.1
20180716003334 65 217 1.0 4.0 0.00 0.01 0.00 71 1025.1
20180716002340 66 217 0.0 3.0 0.00 0.01 0.00 70 1025.2
20180716001408 66 223 1.0 4.0 0.00 0.01 0.00 71 1025.4
20180716000350 67 222 0.0 6.0 0.00 0.01 0.00 69 1025.4
20180715235334 67 220 0.0 0.0 0.00 0.01 0.00 67 1025.9
20180715234351 67 220 1.0 5.0 0.00 0.01 0.00 66 1025.4
20180715233349 68 222 0.0 2.0 0.00 0.01 0.00 65 1025.4
20180715232340 68 219 0.0 6.0 0.00 0.01 0.00 64 1025.6
20180715231343 68 220 0.0 7.0 0.00 0.01 0.00 63 1025.4
20180715230351 68 224 0.0 1.0 0.00 0.01 0.00 65 1025.4
20180715225358 68 224 0.0 2.0 0.00 0.01 0.00 65 1025.5
20180715224338 68 215 0.0 8.0 0.00 0.01 0.00 64 1025.1
20180715223341 69 210 0.0 6.0 0.00 0.01 0.00 64 1025.1
20180715222332 70 216 1.0 10.0 0.00 0.01 0.00 62 1025.6
20180715221355 71 241 0.0 4.0 0.00 0.01 0.00 59 1026.0
20180715220401 72 323 0.0 1.0 0.00 0.01 0.00 57 1026.0
20180715215348 73 323 0.0 0.0 0.00 0.01 0.00 57 1025.6
20180715214333 73 323 0.0 0.0 0.00 0.01 0.00 59 1025.4
20180715213341 73 323 0.0 0.0 0.00 0.01 0.00 58 1025.4
20180715212343 73 323 0.0 0.0 0.00 0.01 0.00 53 1026.0
20180715211350 73 323 0.0 0.0 0.00 0.01 0.00 52 1025.9
20180715210333 73 323 0.0 1.0 0.00 0.01 0.00 52 1025.9
20180715205337 73 323 0.0 0.0 0.00 0.01 0.00 52 1026.0
20180715204336 73 323 0.0 0.0 0.00 0.01 0.00 52 1026.5
20180715203338 73 313 1.0 6.0 0.00 0.01 0.00 51 1026.5
20180715202340 73 229 0.0 0.0 0.00 0.01 0.00 53 1026.4
20180715201339 73 229 0.0 0.0 0.00 0.01 0.00 52 1026.2
20180715200343 74 229 0.0 8.0 0.00 0.01 0.00 50 1026.2
20180715195347 75 227 0.0 6.0 0.00 0.01 0.00 48 1026.5
20180715194333 77 229 0.0 1.0 0.00 0.01 0.00 44 1026.7
20180715193359 78 88 1.0 5.0 0.00 0.01 0.00 40 1026.7
20180715192339 78 51 0.0 1.0 0.00 0.01 0.00 43 1026.4
20180715191343 77 76 0.0 1.0 0.00 0.01 0.00 41 1026.6
20180715190351 78 73 2.0 8.0 0.00 0.01 0.00 42 1026.6
20180715185336 77 335 1.0 7.0 0.00 0.01 0.00 43 1026.5
20180715184341 77 335 1.0 7.0 0.00 0.01 0.00 43 1026.8
20180715183348 77 320 1.0 7.0 0.00 0.01 0.00 46 1026.8
20180715182334 77 328 1.0 7.0 0.00 0.01 0.00 46 1026.2
20180715181355 77 304 0.0 2.0 0.00 0.01 0.00 41 1026.5
20180715180406 77 301 0.0 3.0 0.00 0.01 0.00 41 1026.5
20180715175331 76 301 0.0 1.0 0.00 0.01 0.00 43 1027.1
20180715174337 76 301 0.0 1.0 0.00 0.01 0.00 51 1027.0
20180715173345 75 295 0.0 1.0 0.00 0.01 0.00 52 1027.0
20180715172337 75 294 0.0 1.0 0.00 0.01 0.00 48 1026.9
20180715171341 75 294 0.0 1.0 0.00 0.01 0.00 52 1026.9
20180715170342 73 294 0.0 2.0 0.00 0.01 0.00 52 1026.9
20180715165350 72 294 0.0 1.0 0.00 0.01 0.00 54 1026.5
20180715164359 72 294 0.0 1.0 0.00 0.01 0.00 60 1026.4
20180715163342 72 285 0.0 1.0 0.00 0.01 0.00 58 1026.4
20180715162347 72 285 0.0 0.0 0.00 0.01 0.00 59 1026.8
20180715161332 71 284 0.0 0.0 0.00 0.01 0.00 61 1026.9
20180715160341 71 284 0.0 0.0 0.00 0.01 0.00 63 1026.9
20180715155342 70 284 0.0 1.0 0.00 0.01 0.00 64 1026.6
20180715154408 69 284 0.0 1.0 0.00 0.01 0.00 67 1026.5
20180715153332 68 284 0.0 0.0 0.00 0.01 0.00 68 1026.5
20180715152404 67 227 0.0 0.0 0.00 0.01 0.00 70 1026.7
20180715151347 66 227 0.0 0.0 0.00 0.01 0.00 72 1026.8
20180715150334 65 227 0.0 0.0 0.00 0.01 0.00 76 1026.8
20180715145333 64 227 0.0 0.0 0.00 0.01 0.00 81 1026.3